Location: Kapla
(46.2483°N, 15.0094°E)
Time: 07:16:39
(UTC+00:00)

SL-4 R/B - Pass Details

Date: 03 March 2021
Orbit: 428 x 663 km, 51.6° (Epoch: 18 April)

Event Time Altitude Azimuth Distance (km) Brightness Sun altitude
Rises 18:12:10 0° 294° (WNW) 2,487 6.9 -15.1°
Reaches altitude 10° 18:14:26 10° 301° (WNW) 1,582 5.4 -15.5°
Maximum altitude 18:17:48 41° 14° (NNE) 646 2.3 -16.1°
Enters shadow 18:18:48 32° 57° (ENE) 772 2.4 -16.3°
